{"data":{"norad_id":48686,"epoch":"2026-05-25T04:33:34.288416Z","epoch_age_seconds":61733,"freshness":"FRESH","line1":"1 48686U 21044BA  26145.18998019 -.00000189  00000+0  56798-5 0  9994","line2":"2 48686  53.1599  79.5626 0001156  84.6346 275.4788 15.31698073276071","mean_motion":15.31698073,"eccentricity":0.0001156,"inclination_deg":53.1599,"raan_deg":79.5626,"arg_perigee_deg":84.6346,"mean_anomaly_deg":275.4788,"bstar":5.6798e-6,"rev_number":27607,"period_min":94.01330623728,"perigee_km":469.95400867371,"apogee_km":471.53747036309,"semimajor_km":6848.8827395184,"source":"CELESTRAK","updated_at":"2026-05-25T13:38:16.761766Z"}}